Temp_Advection
nan nan nan nan nan nan nan nan nan nan nan nan nan nan nan nan nan nan nan nan nan nan nan nan nan nan nan
nan -0 -1 -0 0 0 0 0 1 0 0 0 0 0 0 0 0 0 -0 -0 0 0 0 -0 -0 -0 nan
nan -0 0 1 1 0 0 1 1 0 -0 0 0 0 0 0 0 0 0 0 0 0 0 0 -0 -0 nan
nan 0 1 1 -0 -0 1 0 0 -0 -0 -0 -0 0 0 0 0 0 0 0 0 0 0 0 -0 -0 nan
nan -0 -1 -1 -1 -0 -1 0 1 -0 -0 -0 0 0 1 0 0 0 0 0 0 0 0 -0 0 -0 nan
nan -2 -2 -2 -1 -1 0 0 -2 -1 -0 0 0 0 1 0 0 0 0 0 0 0 0 -0 0 0 nan
nan -1 -1 -1 -0 0 -1 -1 -0 1 1 1 0 0 0 0 0 0 0 0 0 0 0 0 0 0 nan
nan 0 0 1 1 1 1 3 2 1 1 0 0 1 1 0 0 0 1 0 0 0 0 0 -0 0 nan
nan 1 1 1 1 1 2 1 1 0 0 0 -0 1 1 0 0 1 1 0 0 0 0 0 -0 -0 nan
nan 0 0 0 0 0 -0 1 1 0 0 0 -0 0 0 0 0 1 1 1 0 -0 0 0 -0 -0 nan
nan 0 -0 -1 -0 0 1 1 1 1 0 0 0 1 0 0 1 1 1 0 0 0 0 0 -0 -0 nan
nan -0 -1 -0 0 1 1 1 1 1 0 0 1 1 1 1 1 1 0 0 0 0 0 -0 -0 -0 nan
nan -1 -0 1 1 1 0 1 1 0 0 0 1 1 1 1 1 1 0 0 0 0 0 -0 -0 0 nan
nan 0 1 1 1 0 0 1 1 0 0 0 1 1 1 1 1 1 1 0 0 0 0 -0 -0 0 nan
nan 1 1 1 1 1 1 1 1 1 1 0 0 1 1 1 0 1 0 0 0 0 0 0 -0 0 nan
nan 1 1 1 1 1 1 1 2 2 1 1 1 1 1 0 0 1 0 0 0 0 0 0 0 0 nan
nan nan nan nan nan nan nan nan nan nan nan nan nan nan nan nan nan nan nan nan nan nan nan nan nan nan nan
Wind_Speed
43 37 35 33 31 27 24 23 21 18 16 14 12 11 9 9 9 8 10 12 13 12 12 12 14 15 18
40 40 37 35 32 29 28 25 23 21 19 17 15 13 12 11 10 9 11 13 14 13 13 13 14 16 18
32 38 36 36 35 32 30 27 25 23 21 20 18 15 15 13 12 11 12 13 13 13 13 13 14 16 18
29 33 40 36 38 36 35 31 28 26 24 21 19 17 17 15 13 12 12 13 14 14 14 14 14 16 18
33 32 38 43 42 40 37 32 29 28 25 23 22 19 18 16 14 13 13 14 15 14 13 14 15 17 19
38 36 35 39 41 40 39 36 34 32 28 25 23 20 19 17 15 14 13 14 15 14 13 15 15 17 18
34 33 31 30 34 37 37 36 34 27 25 26 25 22 20 18 17 15 14 13 15 14 15 15 15 16 18
24 20 22 24 25 27 31 33 32 29 25 21 23 22 21 19 18 16 14 13 16 15 17 15 15 16 18
24 21 20 19 20 27 31 31 33 32 29 25 20 20 22 21 19 17 14 16 13 16 16 15 15 16 18
29 26 25 24 21 20 24 27 31 30 29 28 22 19 20 21 19 17 15 15 15 17 15 15 15 17 18
30 31 30 28 26 25 23 24 25 27 15 26 25 22 20 9 15 15 16 14 15 16 15 14 15 17 19
36 36 32 29 25 24 23 23 23 25 22 16 23 22 21 18 15 14 14 14 15 14 14 13 15 17 19
39 36 32 28 26 26 26 25 25 26 24 19 19 18 16 19 18 16 14 12 14 14 13 13 14 16 17
40 38 33 30 29 28 28 27 27 27 27 23 19 21 19 19 18 16 11 10 10 11 11 13 15 16 18
42 40 36 34 32 31 29 28 29 30 29 27 23 22 20 19 18 14 10 13 13 12 11 12 14 16 18
45 43 39 37 35 34 32 31 30 27 25 26 25 22 20 18 16 12 11 13 12 11 11 12 13 16 18
47 45 42 39 37 37 36 33 30 25 23 25 24 23 20 17 13 11 11 12 11 11 11 12 14 16 17
Wind_Direction
208 207 203 203 206 208 213 216 218 219 225 231 237 243 255 271 289 314 328 337 342 339 337 339 343 345 349
208 206 207 206 211 213 217 220 223 226 229 235 240 244 251 262 278 300 315 328 332 331 331 335 339 341 347
213 208 207 207 210 214 220 222 224 227 232 235 238 242 249 256 270 285 305 316 325 325 323 330 334 337 344
219 214 211 208 213 216 215 218 223 227 231 235 238 240 245 251 261 278 294 307 315 317 320 325 330 333 339
210 210 212 212 213 214 220 223 223 227 231 235 239 240 243 248 255 269 284 299 308 311 316 321 325 331 336
209 213 216 216 216 218 219 216 219 226 229 234 236 237 240 246 252 265 279 293 302 306 312 316 321 326 332
209 212 219 222 220 220 222 226 229 227 231 234 235 237 239 243 253 260 273 287 302 302 309 308 313 322 330
222 231 233 234 231 233 227 225 227 231 233 235 237 238 238 242 248 256 267 279 296 295 298 301 309 318 326
217 222 229 236 237 231 228 225 226 230 229 234 237 233 232 237 244 253 259 290 288 290 290 297 303 316 324
212 212 213 217 220 227 230 231 227 231 231 229 232 229 227 235 237 248 259 276 284 284 286 292 302 317 325
213 213 215 217 217 217 218 225 231 232 239 226 229 222 215 220 231 236 278 274 281 280 284 291 306 316 324
213 215 217 220 219 217 217 219 217 226 225 227 227 224 224 233 234 266 281 271 275 277 283 293 310 319 321
216 216 218 221 220 217 215 215 213 214 217 226 223 218 224 238 245 286 270 274 271 274 278 296 307 314 319
218 217 217 220 221 222 220 216 213 212 213 215 214 222 235 238 259 284 267 255 273 269 280 293 306 313 321
220 218 219 222 222 221 219 217 216 216 213 213 214 221 229 244 265 260 255 261 265 270 281 293 304 311 316
220 221 223 223 220 218 216 216 216 214 217 219 219 219 230 242 255 239 247 257 261 266 279 293 306 311 317
221 221 222 223 221 217 214 211 206 204 220 222 222 225 232 244 235 230 247 252 256 268 281 297 308 312 319
Height
1570 1577 1582 1587 1591 1595 1598 1601 1604 1606 1608 1610 1611 1612 1613 1612 1612 1611 1610 1609 1607 1605 1602 1599 1598 1596 1592
1565 1571 1577 1583 1587 1591 1593 1597 1600 1602 1604 1606 1608 1610 1610 1610 1610 1610 1609 1607 1605 1603 1601 1598 1596 1594 1591
1562 1566 1572 1578 1582 1586 1590 1594 1596 1598 1600 1602 1604 1606 1607 1607 1607 1607 1607 1605 1603 1601 1598 1596 1594 1593 1589
1560 1563 1568 1573 1577 1580 1583 1587 1591 1593 1596 1598 1601 1602 1603 1604 1604 1604 1604 1603 1601 1599 1596 1595 1593 1590 1586
1554 1557 1560 1564 1568 1573 1579 1583 1586 1588 1591 1593 1596 1597 1599 1600 1601 1601 1601 1600 1599 1597 1595 1593 1591 1588 1585
1545 1549 1553 1557 1564 1568 1573 1577 1579 1580 1585 1589 1591 1593 1595 1597 1597 1597 1598 1597 1596 1595 1593 1591 1589 1587 1583
1540 1545 1549 1553 1558 1561 1566 1571 1573 1577 1580 1583 1586 1589 1591 1592 1593 1594 1594 1595 1594 1591 1589 1588 1586 1584 1580
1542 1546 1550 1553 1557 1560 1562 1566 1571 1574 1577 1579 1582 1584 1587 1588 1588 1589 1591 1590 1590 1589 1587 1586 1584 1581 1578
1538 1542 1547 1550 1554 1557 1558 1563 1565 1568 1572 1576 1577 1579 1582 1584 1585 1586 1587 1587 1586 1585 1584 1583 1581 1580 1577
1532 1536 1540 1544 1548 1551 1555 1557 1561 1564 1567 1571 1573 1575 1577 1579 1580 1582 1583 1582 1582 1582 1581 1580 1579 1578 1575
1528 1532 1535 1538 1542 1545 1549 1554 1556 1560 1563 1565 1567 1570 1572 1574 1576 1577 1578 1578 1578 1578 1578 1578 1577 1575 1573
1522 1525 1530 1534 1538 1541 1545 1548 1552 1555 1560 1561 1563 1566 1569 1571 1573 1574 1574 1574 1575 1576 1575 1574 1573 1571 1567
1516 1521 1526 1530 1534 1536 1538 1542 1546 1550 1554 1558 1560 1563 1564 1566 1569 1570 1570 1572 1572 1572 1572 1571 1569 1566 1564
1510 1515 1520 1524 1528 1532 1533 1536 1541 1545 1549 1553 1556 1560 1560 1562 1565 1566 1568 1569 1569 1569 1569 1568 1566 1564 1561
1504 1509 1512 1516 1520 1526 1528 1531 1535 1539 1544 1548 1551 1554 1556 1559 1561 1562 1563 1565 1565 1565 1565 1565 1563 1560 1557
1498 1502 1505 1509 1513 1519 1523 1526 1531 1536 1541 1544 1547 1550 1552 1555 1556 1557 1559 1561 1562 1562 1562 1561 1559 1557 1555
1489 1494 1497 1503 1507 1511 1516 1521 1526 1532 1537 1540 1543 1545 1547 1550 1552 1554 1557 1557 1559 1560 1560 1559 1558 1556 1553